This demonstration page uses our WeatherBlox Daily Observations layout. Learn more.

Left ArrowRight Arrow

39.01783, -85.05884

Hourly Observations for March 24, 2017

Temp ( °F °C ) Dew Point ( °F °C ) Humidity (%) Winds ( mph kmh ) Pressure ( in mb ) Visibility ( mi km ) Precip ( " mm )
12:52 am 00:52 Mostly Clear 51 10.6 33 0.6 50 50 S 7 11 30.18 1022 10 16 0.00 0.00
1:52 am 01:52 Partly Cloudy 51 10.6 34 1.1 52 52 S 7 11 30.16 1022 10 16 0.00 0.00
2:52 am 02:52 Cloudy 53 11.7 37 2.8 55 55 S 12 19 30.14 1021 10 16 0.00 0.00
3:52 am 03:52 Mostly Cloudy 53 11.7 38 3.3 57 57 S 12 19 30.13 1020 10 16 0.00 0.00
4:52 am 04:52 Clear 53 11.7 40 4.4 61 61 S 13 20 30.11 1020 10 16 0.00 0.00
5:52 am 05:52 Mostly Clear 52 11.1 40 4.4 64 64 S 12 19 30.12 1020 10 16 0.00 0.00
6:52 am 06:52 Partly Cloudy 52 11.1 41 5 66 66 S 12 19 30.14 1021 10 16 0.00 0.00
7:52 am 07:52 Mostly Cloudy 51 10.6 41 5 69 69 S 9 15 30.16 1022 10 16 0.00 0.00
8:52 am 08:52 Mostly Cloudy 55 12.8 43 6.1 64 64 S 10 17 30.18 1022 10 16 0.00 0.00
9:52 am 09:52 Mostly Cloudy 60 15.6 46 7.8 60 60 SSW 16 26 30.19 1022 10 16 0.00 0.00
10:52 am 10:52 Mostly Cloudy 63 17.2 48 8.9 58 58 SSW 20 31 30.19 1022 10 16 0.00 0.00
11:52 am 11:52 Mostly Cloudy 66 18.9 50 10 56 56 SSW 15 24 30.22 1023 10 16 0.00 0.00
12:52 pm 12:52 Mostly Cloudy 68 20 51 10.6 55 55 S 17 28 30.19 1022 10 16 0.00 0.00
1:52 pm 13:52 Partly Cloudy 73 22.8 53 11.7 50 50 SSW 16 26 30.16 1021 10 16 0.00 0.00
2:52 pm 14:52 Mostly Cloudy 72 22.2 52 11.1 50 50 S 16 26 30.14 1021 10 16 0.00 0.00
3:52 pm 15:52 Mostly Cloudy 73 22.8 52 11.1 48 48 SSW 13 20 30.11 1020 10 16 0.00 0.00
4:52 pm 16:52 Cloudy 73 22.8 53 11.7 50 50 SSW 18 30 30.10 1019 10 16 0.00 0.00
5:52 pm 17:52 Cloudy 72 22.2 53 11.7 52 52 SSW 12 19 30.08 1019 10 16 0.00 0.00
6:52 pm 18:52 Partly Cloudy 72 22.2 53 11.7 52 52 SSW 14 22 30.08 1019 10 16 0.00 0.00
7:52 pm 19:52 Partly Cloudy 70 21.1 53 11.7 55 55 SSW 12 19 30.09 1019 10 16 0.00 0.00
8:52 pm 20:52 Cloudy 68 20 52 11.1 57 57 SSW 12 19 30.10 1019 10 16 0.00 0.00
9:52 pm 21:52 Cloudy 68 20 52 11.1 57 57 SSW 12 19 30.09 1019 10 16 0.00 0.00
10:52 pm 22:52 Cloudy 67 19.4 52 11.1 59 59 SW 8 13 30.11 1020 10 16 0.00 0.00
11:52 pm 23:52 Cloudy 65 18.3 52 11.1 63 63 SW 8 13 30.12 1020 10 16 0.00 0.00

Powered by AerisWeather